Home   Weather   Middleborough   Past weeks
Flag for USA

Past Weather in Middleborough, Massachusetts, USA — Yesterday and Last 2 Weeks

Now
56 °F

Light rain. Mostly cloudy.


Feels Like: 51 °F
Forecast: 56 / 48 °F
Wind: 21 mph from West

Location: Taunton Municipal Airport

Current Time: Oct 17, 2019 at 5:09:11 pm

Latest Report: Oct 17, 2019 at 3:52 pm


Visibility: 10 mi

Pressure: 29.13 "Hg

Humidity: 60%

Dew Point: 42 °F

Location of MiddleboroughLocation

Past Weather in Middleborough — Graph

°F

Middleborough Temperature Yesterday

Maximum temperature yesterday: 62 °F (at 10:52 am)
Minimum temperature yesterday: 33 °F (at 5:52 am)
Average temperature yesterday: 49 °F

High & Low Weather Summary for the Past Weeks

 TemperatureHumidityPressure
High79 °F (Oct 7, 12:52 pm)93% (Oct 4, 12:52 am)30.45 "Hg (Oct 4, 12:52 am)
Low31 °F (Oct 5, 6:52 am)33% (Oct 15, 12:52 pm)28.84 "Hg (Oct 17, 3:52 am)
Average55 °F78%30.05 "Hg
* Reported Oct 2 3:34 pm — Oct 17 3:52 pm, Middleborough. Weather by CustomWeather, © 2019

Note: Actual official high and low records may vary slightly from our data, if they occured in-between our weather recording intervals... More about our weather records

Advertising

Middleborough Weather History for the Previous 24 Hours

Scroll right to see more
 ConditionsComfort  
Time TempWeatherWind HumidityBarometerVisibility
3:52 pm
Thu, Oct 17
56 °FLight rain. Mostly cloudy.21 mph60%29.13 "Hg10 mi
2:52 pm57 °FMostly cloudy.13 mph53%29.09 "Hg10 mi
1:52 pm57 °FMostly cloudy.13 mph53%29.08 "Hg10 mi
12:52 pm57 °FMostly cloudy.17 mph53%29.08 "Hg10 mi
11:52 am58 °FOvercast.18 mph51%29.07 "Hg10 mi
9:52 am55 °FOvercast.18 mph59%29.07 "Hg10 mi
8:52 am54 °FMostly cloudy.18 mph62%29.08 "Hg10 mi
7:52 am53 °FMostly cloudy.13 mph61%29.04 "Hg10 mi
7:16 am52 °FOvercast.18 mph66%29.02 "Hg10 mi
6:52 am53 °FOvercast.17 mph69%29.00 "Hg10 mi
5:52 am54 °FOvercast.15 mph74%28.94 "Hg10 mi
5:38 am54 °FOvercast.16 mph77%28.92 "Hg10 mi
4:52 am59 °FLight rain. Mostly cloudy.16 mph84%28.86 "Hg10 mi
4:42 am61 °FLight rain. Overcast.15 mph87%28.84 "Hg7 mi
3:52 am63 °FLow clouds.10 mph87%28.84 "Hg10 mi
3:40 am63 °FOvercast.9 mph87%28.84 "Hg10 mi
2:52 am63 °FPartly cloudy.8 mph87%28.86 "Hg10 mi
2:16 am63 °FLight rain. Mostly cloudy.22 mph87%28.84 "Hg10 mi
2:08 am62 °FRain. Fog.22 mph86%28.85 "Hg3 mi
2:00 am61 °FRain. Fog.15 mph87%28.88 "Hg2 mi
1:12 am62 °FHeavy rain. Fog.18 mph86%29.04 "Hg4 mi
12:52 am62 °FHeavy rain. Fog.13 mph86%29.12 "Hg2 mi
12:44 am61 °FHeavy rain. Fog.16 mph90%29.13 "Hg3 mi
12:33 am62 °FHeavy rain. Fog.13 mph86%29.16 "Hg2 mi
11:52 pm
Wed, Oct 16
61 °FHeavy rain. Fog.17 mph90%29.25 "Hg2 mi
11:13 pm60 °FHeavy rain. Fog.14 mph86%29.31 "Hg4 mi
11:02 pm60 °FRain. Fog.16 mph86%29.33 "Hg3 mi
10:15 pm59 °FRain. Fog.12 mph87%29.42 "Hg5 mi
9:52 pm58 °FLight rain. Mostly cloudy.13 mph87%29.48 "Hg8 mi
8:52 pm58 °FLight rain. Mostly cloudy.6 mph84%29.59 "Hg7 mi
7:52 pm58 °FOvercast.10 mph81%29.66 "Hg10 mi
6:52 pm57 °FClear.8 mph78%29.70 "Hg10 mi
5:52 pm58 °FPassing clouds.6 mph75%29.76 "Hg10 mi
5:40 pm58 °FScattered clouds.8 mph75%29.78 "Hg10 mi
5:11 pm58 °FPartly sunny.8 mph75%29.78 "Hg10 mi
Weather by CustomWeather, © 2019

See weather overview